Location: *
(33.6842°N, 117.7925°W)
Time: 12:19:39
(UTC+00:00)

CZ-4B DEB - Pass Details

Date: 21 October 2019
Orbit: 840 x 862 km, 99.1° (Epoch: 18 November)

Event Time Altitude Azimuth Distance (km) Brightness Sun altitude
Rises 13:07:33 0° 11° (N) 3,404 7.4 -11.8°
Reaches altitude 10° 13:09:56 10° 10° (N) 2,464 6.7 -11.3°
Maximum altitude 13:15:23 77° 286° (WNW) 866 4.1 -10.1°
Drops below altitude 10° 13:20:47 10° 200° (SSW) 2,447 6.5 -9.0°
Sets 13:23:08 0° 199° (SSW) 3,378 7.2 -8.5°
